Regional Weather Roundup
Issued by NWS Albany, NY

Home | Current Version | Previous Version | Text Only | Print | Product List | Glossary On
Versions: 1 2 3 4 5 6 7 8 9 10 11 12 13 14 15 16 17 18 19 20 21 22 23 24 25 26 27 28 29 30 31 32 33 34 35 36 37 38 39 40 41 42 43 44 45 46 47 48 49 50
000
ASUS41 KALY 212010
RWRALY

NEW YORK STATE HOURLY WEATHER ROUNDUP
NATIONAL WEATHER SERVICE ALBANY NY
400 PM EDT MON AUG 21 2017

NOTE: "FAIR" INDICATES FEW OR NO CLOUDS BELOW 12,000 FEET WITH NO
SIGNIFICANT WEATHER AND/OR NO OBSTRUCTIONS TO VISIBILITY.

NYZ032-033-038>043-046>054-057>066-NYZ062>081-082-084-212100-
EAST


CITY           SKY/WX    TMP DP  RH WIND       PRES   REMARKS
ALBANY         MOSUNNY   84  63  49 S9        30.09F
GLENS FALLS    SUNNY     83  63  50 SW8       30.07F
POUGHKEEPSIE   MOSUNNY   83  65  54 SW6       30.10F
NEWBURGH       MOSUNNY   82  70  65 W7        30.14S
MONTGOMERY     CLOUDY    83  70  64 S6        30.12S
WHITE PLAINS   MOSUNNY   82  64  54 S8        30.13F
ISLIP          PTSUNNY   82  63  52 SW13      30.14S
NEW YORK CITY  PTSUNNY   85  66  53 S12       30.13S
CENTRAL PARK   CLOUDY    82  67  60 VRB3      30.16S
$$

NYZ005>009-017-018-044>046-055-056-212100-
CENTRAL


CITY           SKY/WX    TMP DP  RH WIND       PRES   REMARKS
FULTON         SUNNY     84  67  56 CALM      30.07F
SYRACUSE       MOSUNNY   86  63  45 SW7       30.06S
ROME           PTSUNNY   83  61  47 S5        30.08S
ELMIRA         LGT RAIN  78  78 100 N6G21     30.09R
BINGHAMTON     SUNNY     78  67  68 S9        30.14F
MONTICELLO     MOSUNNY   80  67  64 S8        30.17F
$$

NYZ026>034-041>043-087-212100-
NORTH


CITY           SKY/WX    TMP DP  RH WIND       PRES   REMARKS
WATERTOWN      SUNNY     79  64  60 SW8       30.05F
FORT DRUM      NOT AVBL
OGDENSBURG     FAIR      82  66  58 SW8       30.02F
MASSENA        SUNNY     83  66  56 SW14      30.02F
SARANAC LAKE   SUNNY     78  61  55 W10       30.09F
PLATTSBURGH    SUNNY     86  63  45 VRB3      30.02F
$$

NYZ001>004-010>016-019>021-085-212100-
WEST


CITY           SKY/WX    TMP DP  RH WIND       PRES   REMARKS
NIAGARA FALLS  SUNNY     84  70  62 SW10      30.07S
BUFFALO        MOSUNNY   80  67  64 SW9       30.08F
DUNKIRK        SUNNY     80  71  74 SW7       30.09F
JAMESTOWN      MOSUNNY   81  66  61 VRB6      30.15S
WELLSVILLE     SUNNY     83  60  45 W12       30.17S
ROCHESTER      PTSUNNY   84  69  60 N5        30.07F
PENN YAN       SUNNY     85  66  53 VRB3      30.09F
$$

             KEY
       WCI = WIND CHILL INDEX
       VSB = VISIBILITY
       HX  = HEAT INDEX
$$



USA.gov is the U.S. government's official web portal to all federal, state and local government web resources and services.